Weather History for Franklin, NC

Change the Weather History Date:

Friday, February 15, 2013

  Actual Average (KTOC) Record (KTOC)
Temperature  
Mean Temperature 38 °F -  
Max Temperature 55 °F 58 °F 53 °F (2014)
Min Temperature 22 °F 36 °F 39 °F (2014)
Degree Days  
Heating Degree Days 27    
Moisture  
Dew Point 28 °F    
Average Humidity 73    
Maximum Humidity 94    
Minimum Humidity 32    
Precipitation  
Precipitation 0.00 in - - ()
Sea Level Pressure  
Sea Level Pressure 30.04 in    
Wind  
Wind Speed 2 mph (NW)    
Max Wind Speed 13 mph    
Max Gust Speed 23 mph    
Visibility 10 miles    
Events Rain    
Averages and records for this station are not official NWS values.
T = Trace of Precipitation, MM = Missing Value Source: NWS Daily Summary

Daily Weather History Graph

Daily Weather History Graph

Search for Another Location

Airport:

Trip Planner

Search our weather history database for the weather conditions in past years. The results will help you decide how hot, cold, wet, or windy it might be!

Date:

Astronomy

Feb. 15, 2013 Rise Set
Actual Time 7:19 AM EST 6:16 PM EST
Civil Twilight 6:53 AM EST 6:42 PM EST
Nautical Twilight 6:23 AM EST 7:12 PM EST
Astronomical Twilight 5:54 AM EST 7:41 PM EST
Moon 10:09 AM EST (2/15) No Moon Set
Length of Visible Light 11h 48m
Length of Day
10h 56m
Waxing Crescent, 30% of the Moon is Illuminated
Feb 15
Waxing Crescent
Feb 17
First Quarter
Feb 25
Full
Mar 4
Last Quarter
Mar 11
New

Hourly Weather History & Observations

Time (EST) Temp. Windchill Dew Point Humidity Pressure Visibility Wind Dir Wind Speed Gust Speed Precip Events Conditions
12:15 AM 26.6 °F - 24.8 °F 93% 30.06 in 10.0 mi Calm Calm - N/A   Clear
12:35 AM 27.0 °F - 25.2 °F 93% 30.06 in 10.0 mi Calm Calm - N/A   Clear
12:55 AM 25.9 °F - 24.3 °F 94% 30.06 in 10.0 mi Calm Calm - N/A   Clear
1:15 AM 26.2 °F - 24.6 °F 94% 30.06 in 10.0 mi Calm Calm - N/A   Clear
1:55 AM 25.3 °F - 23.4 °F 92% 30.06 in 10.0 mi Calm Calm - N/A   Clear
2:15 AM 25.7 °F - 23.9 °F 93% 30.06 in 10.0 mi Calm Calm - N/A   Clear
2:35 AM 24.8 °F - 23.0 °F 93% 30.05 in 10.0 mi Calm Calm - N/A   Clear
2:55 AM 24.6 °F - 23.2 °F 94% 30.05 in 10.0 mi Calm Calm - N/A   Clear
3:15 AM 24.6 °F - 23.0 °F 94% 30.05 in 10.0 mi Calm Calm - N/A   Clear
3:35 AM 25.0 °F - 23.5 °F 94% 30.06 in 10.0 mi Calm Calm - N/A   Clear
3:55 AM 24.8 °F - 23.2 °F 94% 30.06 in 10.0 mi Calm Calm - N/A   Clear
4:15 AM 24.4 °F - 22.8 °F 94% 30.06 in 10.0 mi Calm Calm - N/A   Clear
4:35 AM 24.1 °F - 22.5 °F 94% 30.06 in 10.0 mi Calm Calm - N/A   Clear
4:55 AM 23.9 °F - 22.3 °F 94% 30.06 in 10.0 mi Calm Calm - N/A   Clear
5:15 AM 22.8 °F - 21.2 °F 93% 30.07 in 10.0 mi Calm Calm - N/A   Clear
5:35 AM 23.7 °F - 22.1 °F 94% 30.07 in 10.0 mi Calm Calm - N/A   Clear
5:55 AM 23.0 °F - 21.2 °F 93% 30.07 in 10.0 mi Calm Calm - N/A   Clear
6:15 AM 22.8 °F - 20.8 °F 92% 30.08 in 10.0 mi Calm Calm - N/A   Clear
6:35 AM 23.0 °F - 21.2 °F 93% 30.09 in 10.0 mi Calm Calm - N/A   Clear
6:55 AM 22.5 °F - 20.5 °F 92% 30.10 in 10.0 mi Calm Calm - N/A   Clear
7:15 AM 22.6 °F - 20.8 °F 93% 30.10 in 10.0 mi Calm Calm - N/A   Clear
7:35 AM 22.1 °F - 20.3 °F 93% 30.10 in 10.0 mi Calm Calm - N/A   Clear
7:55 AM 22.5 °F - 20.3 °F 91% 30.11 in 10.0 mi Calm Calm - N/A   Clear
8:15 AM 24.1 °F - 22.1 °F 92% 30.11 in 10.0 mi Calm Calm - N/A   Clear
8:35 AM 26.1 °F - 24.4 °F 94% 30.11 in 10.0 mi Calm Calm - N/A   Clear
8:55 AM 28.8 °F - 26.8 °F 92% 30.11 in 10.0 mi Calm Calm - N/A   Clear
9:15 AM 30.9 °F - 28.4 °F 90% 30.11 in 10.0 mi Calm Calm - N/A   Clear
9:35 AM 32.7 °F - 29.1 °F 87% 30.10 in 10.0 mi Calm Calm - N/A   Clear
9:55 AM 35.2 °F - 30.2 °F 82% 30.10 in 10.0 mi Calm Calm - N/A   Clear
10:15 AM 38.3 °F - 31.1 °F 75% 30.09 in 10.0 mi Calm Calm - N/A   Clear
10:35 AM 41.4 °F - 31.5 °F 68% 30.08 in 10.0 mi Calm Calm - N/A   Clear
10:55 AM 42.8 °F - 32.0 °F 66% 30.08 in 10.0 mi Calm Calm - N/A   Clear
11:15 AM 46.0 °F 44.8 °F 32.0 °F 58% 30.07 in 10.0 mi ENE 3.5 mph - N/A   Clear
11:35 AM 48.9 °F - 31.6 °F 51% 30.06 in 10.0 mi ENE 3.5 mph - N/A   Clear
11:55 AM 50.7 °F - 30.4 °F 46% 30.04 in 10.0 mi East 3.5 mph - N/A   Clear
12:15 PM 52.5 °F - 29.3 °F 41% 30.03 in 10.0 mi ENE 3.5 mph - N/A   Clear
12:55 PM 52.9 °F - 26.6 °F 36% 30.01 in 10.0 mi Calm Calm - N/A   Mostly Cloudy
1:15 PM 53.4 °F - 26.2 °F 35% 30.00 in 10.0 mi Calm Calm - N/A   Overcast
1:55 PM 54.1 °F - 25.5 °F 33% 29.98 in 10.0 mi WNW 11.5 mph 23.0 mph N/A   Overcast
2:15 PM 54.9 °F - 27.0 °F 34% 29.98 in 10.0 mi West 10.4 mph - N/A   Overcast
2:35 PM 53.8 °F - 25.5 °F 34% 29.97 in 10.0 mi West 12.7 mph 16.1 mph N/A   Overcast
2:55 PM 53.6 °F - 27.1 °F 36% 29.97 in 10.0 mi West 11.5 mph - N/A   Overcast
3:15 PM 53.2 °F - 26.8 °F 36% 29.96 in 10.0 mi West 5.8 mph - N/A   Overcast
3:35 PM 54.9 °F - 25.7 °F 32% 29.96 in 10.0 mi West 12.7 mph - N/A   Overcast
3:55 PM 53.6 °F - 27.0 °F 36% 29.95 in 10.0 mi West 9.2 mph - N/A   Overcast
4:15 PM 52.7 °F - 27.0 °F 37% 29.96 in 10.0 mi WNW 12.7 mph 18.4 mph N/A   Overcast
4:35 PM 51.8 °F - 27.1 °F 39% 29.97 in 10.0 mi WNW 11.5 mph 19.6 mph N/A   Overcast
4:55 PM 48.0 °F - 33.1 °F 56% 29.99 in 10.0 mi NNW 11.5 mph 17.3 mph N/A   Overcast
5:15 PM 45.7 °F 41.5 °F 35.4 °F 67% 29.99 in 10.0 mi NW 8.1 mph - N/A Rain Light Rain
5:35 PM 45.5 °F 42.5 °F 35.2 °F 67% 29.99 in 10.0 mi WNW 5.8 mph - N/A   Light Drizzle
5:55 PM 45.1 °F 41.4 °F 35.4 °F 69% 29.99 in 10.0 mi North 6.9 mph - N/A   Light Drizzle
6:15 PM 45.1 °F 40.8 °F 35.1 °F 68% 30.00 in 10.0 mi NNW 8.1 mph - N/A   Overcast
6:35 PM 44.2 °F 41.0 °F 35.6 °F 72% 30.00 in 10.0 mi North 5.8 mph - N/A   Drizzle
6:55 PM 43.7 °F 40.3 °F 35.6 °F 73% 30.00 in 10.0 mi NNW 5.8 mph - N/A   Overcast
7:15 PM 42.8 °F 38.6 °F 34.9 °F 74% 30.01 in 10.0 mi NNW 6.9 mph 17.3 mph N/A   Overcast
7:35 PM 41.9 °F 35.0 °F 33.6 °F 72% 30.02 in 10.0 mi NNW 12.7 mph 20.7 mph N/A   Overcast
7:55 PM 40.8 °F 35.6 °F 32.7 °F 73% 30.02 in 10.0 mi NNW 8.1 mph 17.3 mph N/A Rain Rain
8:15 PM 40.1 °F 33.2 °F 32.0 °F 73% 30.02 in 10.0 mi NW 11.5 mph 17.3 mph N/A Rain Rain
8:35 PM 40.1 °F 34.1 °F 32.0 °F 73% 30.02 in 10.0 mi WNW 9.2 mph 19.6 mph N/A   Drizzle
8:55 PM 39.6 °F 34.0 °F 31.5 °F 73% 30.02 in 10.0 mi NW 8.1 mph - N/A   Overcast
9:15 PM 39.4 °F 35.2 °F 31.1 °F 72% 30.02 in 10.0 mi NNW 5.8 mph - N/A   Scattered Clouds
9:35 PM 39.0 °F 35.7 °F 31.1 °F 73% 30.02 in 10.0 mi WNW 4.6 mph - N/A   Scattered Clouds
9:55 PM 38.1 °F - 31.1 °F 76% 30.02 in 10.0 mi Calm Calm - N/A   Scattered Clouds
10:15 PM 37.9 °F 35.5 °F 31.5 °F 77% 30.02 in 10.0 mi North 3.5 mph - N/A   Mostly Cloudy
10:35 PM 38.1 °F 34.6 °F 31.1 °F 76% 30.02 in 10.0 mi North 4.6 mph - N/A   Mostly Cloudy
10:55 PM 37.6 °F - 31.1 °F 77% 30.01 in 10.0 mi Calm Calm - N/A   Mostly Cloudy
11:15 PM 37.8 °F 35.3 °F 31.1 °F 77% 30.01 in 10.0 mi NNW 3.5 mph - N/A   Overcast
11:35 PM 38.1 °F 32.3 °F 30.7 °F 75% 30.00 in 10.0 mi North 8.1 mph - N/A   Overcast
11:55 PM 37.4 °F 32.8 °F 29.8 °F 74% 29.99 in 10.0 mi NW 5.8 mph - N/A   Overcast